Time,TemperatureF,DewpointF,PressureIn,WindDirection,WindDirectionDegrees,WindSpeedMPH,WindSpeedGustMPH,Humidity,HourlyPrecipIn,Conditions,Clouds,dailyrainin,SolarRadiationWatts/m^2,SoftwareType,DateUTC
2013-03-20 00:12:00,66.0,62.0,-100.00,South,173,3.0,6.0,87,0.00,,,-99.99,0.000000,,2013-03-20 10:12:00,
2013-03-20 00:22:00,66.0,62.0,-100.00,South,173,3.0,6.0,87,0.00,,,-99.99,0.000000,,2013-03-20 10:22:00,
2013-03-20 00:32:00,66.0,62.0,-100.00,South,173,3.0,6.0,87,0.00,,,-99.99,0.000000,,2013-03-20 10:32:00,
2013-03-20 00:42:00,66.0,62.0,-100.00,South,173,3.0,6.0,87,0.00,,,-99.99,0.000000,,2013-03-20 10:42:00,
2013-03-20 01:12:00,65.0,61.0,-100.00,SSW,208,2.0,6.0,87,0.00,,,-99.99,0.000000,,2013-03-20 11:12:00,
2013-03-20 01:22:00,65.0,61.0,-100.00,SSW,208,2.0,6.0,87,0.00,,,-99.99,0.000000,,2013-03-20 11:22:00,
2013-03-20 01:32:00,65.0,61.0,-100.00,SSW,208,2.0,6.0,87,0.00,,,-99.99,0.000000,,2013-03-20 11:32:00,
2013-03-20 01:42:00,65.0,61.0,-100.00,SSW,208,2.0,6.0,87,0.00,,,-99.99,0.000000,,2013-03-20 11:42:00,
2013-03-20 02:12:00,66.0,63.0,-100.00,SW,229,4.0,6.0,89,0.00,,,-99.99,0.000000,,2013-03-20 12:12:00,
2013-03-20 02:22:00,66.0,63.0,-100.00,SW,229,4.0,6.0,89,0.00,,,-99.99,0.000000,,2013-03-20 12:22:00,
2013-03-20 02:32:00,66.0,63.0,-100.00,SW,229,4.0,6.0,89,0.00,,,-99.99,0.000000,,2013-03-20 12:32:00,
2013-03-20 02:42:00,66.0,63.0,-100.00,SW,229,4.0,6.0,89,0.00,,,-99.99,0.000000,,2013-03-20 12:42:00,
2013-03-20 03:12:00,64.0,61.0,-100.00,SSE,158,4.0,5.0,89,0.00,,,-99.99,0.000000,,2013-03-20 13:12:00,
2013-03-20 03:22:00,64.0,61.0,-100.00,SSE,158,4.0,5.0,89,0.00,,,-99.99,0.000000,,2013-03-20 13:22:00,
2013-03-20 03:32:00,64.0,61.0,-100.00,SSE,158,4.0,5.0,89,0.00,,,-99.99,0.000000,,2013-03-20 13:32:00,
2013-03-20 03:42:00,64.0,61.0,-100.00,SSE,158,4.0,5.0,89,0.00,,,-99.99,0.000000,,2013-03-20 13:42:00,
2013-03-20 04:12:00,63.0,60.0,-100.00,SSE,161,3.0,5.0,91,0.00,,,-99.99,0.000000,,2013-03-20 14:12:00,
2013-03-20 04:22:00,63.0,60.0,-100.00,SSE,161,3.0,5.0,91,0.00,,,-99.99,0.000000,,2013-03-20 14:22:00,
2013-03-20 04:33:00,63.0,60.0,-100.00,SSE,161,3.0,5.0,91,0.00,,,-99.99,0.000000,,2013-03-20 14:33:00,
2013-03-20 04:42:00,63.0,60.0,-100.00,SSE,161,3.0,5.0,91,0.00,,,-99.99,0.000000,,2013-03-20 14:42:00,
2013-03-20 05:12:00,63.0,61.0,-100.00,South,182,2.0,4.0,92,0.00,,,-99.99,0.000000,,2013-03-20 15:12:00,
2013-03-20 05:22:00,63.0,61.0,-100.00,South,182,2.0,4.0,92,0.00,,,-99.99,0.000000,,2013-03-20 15:22:00,
2013-03-20 05:33:00,63.0,61.0,-100.00,South,182,2.0,4.0,92,0.00,,,-99.99,0.000000,,2013-03-20 15:33:00,
2013-03-20 05:43:00,63.0,61.0,-100.00,South,182,2.0,4.0,92,0.00,,,-99.99,0.000000,,2013-03-20 15:43:00,
2013-03-20 06:12:00,62.0,60.0,-100.00,South,190,3.0,5.0,92,0.00,,,-99.99,0.000000,,2013-03-20 16:12:00,
2013-03-20 06:23:00,62.0,60.0,-100.00,South,190,3.0,5.0,92,0.00,,,-99.99,0.000000,,2013-03-20 16:23:00,
2013-03-20 06:32:00,62.0,60.0,-100.00,South,190,3.0,5.0,92,0.00,,,-99.99,0.000000,,2013-03-20 16:32:00,
2013-03-20 06:42:00,62.0,60.0,-100.00,South,190,3.0,5.0,92,0.00,,,-99.99,0.000000,,2013-03-20 16:42:00,
2013-03-20 07:12:00,62.0,59.0,-100.00,South,179,2.0,5.0,91,0.00,,,-99.99,2.000000,,2013-03-20 17:12:00,
2013-03-20 07:22:00,62.0,59.0,-100.00,South,179,2.0,5.0,91,0.00,,,-99.99,2.000000,,2013-03-20 17:22:00,
2013-03-20 07:32:00,62.0,59.0,-100.00,South,179,2.0,5.0,91,0.00,,,-99.99,2.000000,,2013-03-20 17:32:00,
2013-03-20 07:42:00,62.0,59.0,-100.00,South,179,2.0,5.0,91,0.00,,,-99.99,2.000000,,2013-03-20 17:42:00,
2013-03-20 08:12:00,67.0,64.0,-100.00,East,82,1.0,4.0,89,0.00,,,-99.99,105.000000,,2013-03-20 18:12:00,
2013-03-20 08:22:00,67.0,64.0,-100.00,East,82,1.0,4.0,89,0.00,,,-99.99,105.000000,,2013-03-20 18:22:00,
2013-03-20 08:32:00,67.0,64.0,-100.00,East,82,1.0,4.0,89,0.00,,,-99.99,105.000000,,2013-03-20 18:32:00,
2013-03-20 08:42:00,67.0,64.0,-100.00,East,82,1.0,4.0,89,0.00,,,-99.99,105.000000,,2013-03-20 18:42:00,
2013-03-20 09:12:00,73.0,63.0,-100.00,ESE,115,6.0,9.0,70,0.00,,,0.00,336.000000,,2013-03-20 19:12:00,
2013-03-20 09:22:00,73.0,63.0,-100.00,ESE,115,6.0,9.0,70,0.00,,,0.00,336.000000,,2013-03-20 19:22:00,
2013-03-20 09:32:00,73.0,63.0,-100.00,ESE,115,6.0,9.0,70,0.00,,,0.00,336.000000,,2013-03-20 19:32:00,
2013-03-20 09:42:00,73.0,63.0,-100.00,ESE,115,6.0,9.0,70,0.00,,,0.00,336.000000,,2013-03-20 19:42:00,
2013-03-20 10:12:00,75.0,65.0,-100.00,ESE,103,12.0,14.0,70,0.00,,,0.00,565.000000,,2013-03-20 20:12:00,
2013-03-20 10:22:00,75.0,65.0,-100.00,ESE,103,12.0,14.0,70,0.00,,,0.00,565.000000,,2013-03-20 20:22:00,
2013-03-20 10:32:00,75.0,65.0,-100.00,ESE,103,12.0,14.0,70,0.00,,,0.00,565.000000,,2013-03-20 20:32:00,
2013-03-20 10:42:00,75.0,65.0,-100.00,ESE,103,12.0,14.0,70,0.00,,,0.00,565.000000,,2013-03-20 20:42:00,
2013-03-20 11:12:00,76.0,67.0,-100.00,East,96,13.0,15.0,75,0.00,,,0.00,720.000000,,2013-03-20 21:12:00,
2013-03-20 11:22:00,76.0,67.0,-100.00,East,96,13.0,15.0,75,0.00,,,0.00,720.000000,,2013-03-20 21:22:00,
2013-03-20 11:33:00,76.0,67.0,-100.00,East,96,13.0,15.0,75,0.00,,,0.00,720.000000,,2013-03-20 21:33:00,
2013-03-20 11:42:00,76.0,67.0,-100.00,East,96,13.0,15.0,75,0.00,,,0.00,720.000000,,2013-03-20 21:42:00,
2013-03-20 12:12:00,77.0,68.0,-100.00,East,94,12.0,16.0,74,0.00,,,0.00,898.000000,,2013-03-20 22:12:00,
2013-03-20 12:23:00,77.0,68.0,-100.00,East,94,12.0,16.0,74,0.00,,,0.00,898.000000,,2013-03-20 22:23:00,
2013-03-20 12:32:00,77.0,68.0,-100.00,East,94,12.0,16.0,74,0.00,,,0.00,898.000000,,2013-03-20 22:32:00,
2013-03-20 12:42:00,77.0,68.0,-100.00,East,94,12.0,16.0,74,0.00,,,0.00,898.000000,,2013-03-20 22:42:00,
2013-03-20 13:12:00,78.0,67.0,-100.00,East,98,14.0,18.0,70,0.00,,,0.00,895.000000,,2013-03-20 23:12:00,
2013-03-20 13:22:00,78.0,67.0,-100.00,East,98,14.0,18.0,70,0.00,,,0.00,895.000000,,2013-03-20 23:22:00,
2013-03-20 13:32:00,78.0,67.0,-100.00,East,98,14.0,18.0,70,0.00,,,0.00,895.000000,,2013-03-20 23:32:00,
2013-03-20 13:42:00,78.0,67.0,-100.00,East,98,14.0,18.0,70,0.00,,,0.00,895.000000,,2013-03-20 23:42:00,
2013-03-20 14:12:00,76.0,65.0,-100.00,East,96,10.0,16.0,70,0.00,,,0.00,647.000000,,2013-03-21 00:12:00,
2013-03-20 14:22:00,76.0,65.0,-100.00,East,96,10.0,16.0,70,0.00,,,0.00,647.000000,,2013-03-21 00:22:00,
2013-03-20 14:32:00,76.0,65.0,-100.00,East,96,10.0,16.0,70,0.00,,,0.00,647.000000,,2013-03-21 00:32:00,
2013-03-20 14:42:00,76.0,65.0,-100.00,East,96,10.0,16.0,70,0.00,,,0.00,647.000000,,2013-03-21 00:42:00,
2013-03-20 15:12:00,76.0,65.0,-100.00,ENE,74,10.0,13.0,70,0.00,,,0.00,606.000000,,2013-03-21 01:12:00,
2013-03-20 15:22:00,76.0,65.0,-100.00,ENE,74,10.0,13.0,70,0.00,,,0.00,606.000000,,2013-03-21 01:22:00,
2013-03-20 15:32:00,76.0,65.0,-100.00,ENE,74,10.0,13.0,70,0.00,,,0.00,606.000000,,2013-03-21 01:32:00,
2013-03-20 15:42:00,76.0,65.0,-100.00,ENE,74,10.0,13.0,70,0.00,,,0.00,606.000000,,2013-03-21 01:42:00,
2013-03-20 16:12:00,76.0,67.0,-100.00,ENE,70,9.0,12.0,74,0.00,,,0.00,380.000000,,2013-03-21 02:12:00,
2013-03-20 16:22:00,76.0,67.0,-100.00,ENE,70,9.0,12.0,74,0.00,,,0.00,380.000000,,2013-03-21 02:22:00,
2013-03-20 16:32:00,76.0,67.0,-100.00,ENE,70,9.0,12.0,74,0.00,,,0.00,380.000000,,2013-03-21 02:32:00,
2013-03-20 16:42:00,76.0,67.0,-100.00,ENE,70,9.0,12.0,74,0.00,,,0.00,380.000000,,2013-03-21 02:42:00,
2013-03-20 17:12:00,75.0,67.0,-100.00,ENE,73,10.0,12.0,77,0.00,,,0.00,251.000000,,2013-03-21 03:12:00,
2013-03-20 17:22:00,75.0,67.0,-100.00,ENE,73,10.0,12.0,77,0.00,,,0.00,251.000000,,2013-03-21 03:22:00,
2013-03-20 17:32:00,75.0,67.0,-100.00,ENE,73,10.0,12.0,77,0.00,,,0.00,251.000000,,2013-03-21 03:32:00,
2013-03-20 17:43:00,75.0,67.0,-100.00,ENE,73,10.0,12.0,77,0.00,,,0.00,251.000000,,2013-03-21 03:43:00,
2013-03-20 18:13:00,76.0,69.0,-100.00,ESE,108,6.0,12.0,79,0.00,,,0.00,74.000000,,2013-03-21 04:13:00,
2013-03-20 18:22:00,76.0,69.0,-100.00,ESE,108,6.0,12.0,79,0.00,,,0.00,74.000000,,2013-03-21 04:22:00,
2013-03-20 18:32:00,76.0,69.0,-100.00,ESE,108,6.0,12.0,79,0.00,,,0.00,74.000000,,2013-03-21 04:32:00,
2013-03-20 18:43:00,76.0,69.0,-100.00,ESE,108,6.0,12.0,79,0.00,,,0.00,74.000000,,2013-03-21 04:43:00,
2013-03-20 19:12:00,75.0,68.0,-100.00,SSW,211,4.0,8.0,79,0.00,,,0.00,47.000000,,2013-03-21 05:12:00,
2013-03-20 19:22:00,75.0,68.0,-100.00,SSW,211,4.0,8.0,79,0.00,,,0.00,47.000000,,2013-03-21 05:22:00,
2013-03-20 19:32:00,75.0,68.0,-100.00,SSW,211,4.0,8.0,79,0.00,,,0.00,47.000000,,2013-03-21 05:32:00,
2013-03-20 19:43:00,75.0,68.0,-100.00,SSW,211,4.0,8.0,79,0.00,,,0.00,47.000000,,2013-03-21 05:43:00,
2013-03-20 20:12:00,72.0,65.0,-100.00,SSE,152,4.0,6.0,80,0.00,,,0.00,0.000000,,2013-03-21 06:12:00,
2013-03-20 20:22:00,72.0,65.0,-100.00,SSE,152,4.0,6.0,80,0.00,,,0.00,0.000000,,2013-03-21 06:22:00,
2013-03-20 20:32:00,72.0,65.0,-100.00,SSE,152,4.0,6.0,80,0.00,,,0.00,0.000000,,2013-03-21 06:32:00,
2013-03-20 20:42:00,72.0,65.0,-100.00,SSE,152,4.0,6.0,80,0.00,,,0.00,0.000000,,2013-03-21 06:42:00,
2013-03-20 21:12:00,71.0,64.0,-100.00,NNE,23,1.0,7.0,78,0.00,,,0.00,0.000000,,2013-03-21 07:12:00,
2013-03-20 21:22:00,71.0,64.0,-100.00,NNE,23,1.0,7.0,78,0.00,,,0.00,0.000000,,2013-03-21 07:22:00,
2013-03-20 21:32:00,71.0,64.0,-100.00,NNE,23,1.0,7.0,78,0.00,,,0.00,0.000000,,2013-03-21 07:32:00,
2013-03-20 21:42:00,71.0,64.0,-100.00,NNE,23,1.0,7.0,78,0.00,,,0.00,0.000000,,2013-03-21 07:42:00,
2013-03-20 22:12:00,69.0,64.0,-100.00,South,182,3.0,5.0,84,0.00,,,0.00,0.000000,,2013-03-21 08:12:00,
2013-03-20 22:22:00,69.0,64.0,-100.00,South,182,3.0,5.0,84,0.00,,,0.00,0.000000,,2013-03-21 08:22:00,
2013-03-20 22:33:00,69.0,64.0,-100.00,South,182,3.0,5.0,84,0.00,,,0.00,0.000000,,2013-03-21 08:33:00,
2013-03-20 22:42:00,69.0,64.0,-100.00,South,182,3.0,5.0,84,0.00,,,0.00,0.000000,,2013-03-21 08:42:00,
2013-03-20 23:11:00,68.0,64.0,-100.00,SSW,201,2.0,4.0,87,0.00,,,0.00,0.000000,,2013-03-21 09:11:00,
2013-03-20 23:21:00,68.0,64.0,-100.00,SSW,201,2.0,4.0,87,0.00,,,0.00,0.000000,,2013-03-21 09:21:00,
2013-03-20 23:33:00,68.0,64.0,-100.00,SSW,201,2.0,4.0,87,0.00,,,0.00,0.000000,,2013-03-21 09:33:00,
2013-03-20 23:43:00,68.0,64.0,-100.00,SSW,201,2.0,4.0,87,0.00,,,0.00,0.000000,,2013-03-21 09:43:00,